Location: Peterborough
(44.3091°N, 78.3197°W)
Time: 03:11:08
(UTC-04:00)

Tiros 1 - Pass Details

Date: 06 April 2023
Orbit: 627 x 661 km, 48.4° (Epoch: 09 June)

Event Time Altitude Azimuth Distance (km) Brightness Sun altitude
Rises 09:27:08 0° 280° (W) 2,990 10.0 27.7°
Reaches altitude 10° 09:31:38 10° 241° (WSW) 2,069 9.5 28.4°
Maximum altitude 09:32:31 11° 230° (SW) 2,035 9.5 28.6°
Drops below altitude 10° 09:33:25 10° 219° (SW) 2,065 9.7 28.7°
Sets 09:37:53 0° 180° (S) 2,964 10.8 29.5°
